Tracking 18673 objects as of 25-June-2017
HD Live streaming from Space Station
objects crossing your sky now

GLOBALSTAR M042

Track GLOBALSTAR M042 now!
10-day predictions
GLOBALSTAR M042 is classified as:


NORAD ID: 25679
Int'l Code: 1999-019D
Perigee: 1,588.0 km
Apogee: 1,594.0 km
Inclination: 52.0 °
Period: 117.8 minutes
Semi major axis: 7961 km
RCS: 2.3601 m2 (large)
Launch date: April 15, 1999
Source: Globalstar (GLOB)
Launch site: TYURATAM MISSILE AND SPACE COMPLEX (TTMTR)
Your satellite tracking list
Your tracking list is empty





NASA's NSSDC Master Catalog

Two Line Element Set (TLE):
1 25679U 99019D   17175.52577208 -.00000118 +00000-0 -24359-3 0  9992
2 25679 052.0028 358.2969 0003728 076.4661 318.7478 12.21996050828988
Source of the keplerian elements: AFSPC